Location: Newark
(25.0000°N, 73.5000°E)
Time: 00:53:10
(UTC+00:00)

NOAA 15 - Pass Details

Date: 28 February 2020
Orbit: 797 x 813 km, 98.7° (Epoch: 28 March)

Event Time Altitude Azimuth Distance (km) Brightness Sun altitude
Rises 14:54:36 0° 201° (SSW) 3,317 8.0 -25.1°
Reaches altitude 10° 14:57:36 10° 219° (SW) 2,391 7.5 -25.8°
Maximum altitude 15:01:15 19° 263° (W) 1,851 7.3 -26.6°
Drops below altitude 10° 15:04:55 10° 307° (NW) 2,400 7.8 -27.4°
Sets 15:07:57 0° 325° (NW) 3,334 8.3 -28.1°
